Location: São Paulo
(23.5507°S, 46.6334°W)
Time: 10:44:21
(UTC-03:00)

Explorer 7 - Pass Details

Date: 22 February 2026
Orbit: 430 x 541 km, 50.2° (Epoch: 11 March)

Event Time Altitude Azimuth Distance (km) Brightness Sun altitude
Rises 23:18:49 0° 322° (NW) 2,683 - -53.4°
Reaches altitude 10° 23:21:02 10° 324° (NW) 1,802 - -53.6°
Maximum altitude 23:25:09 75° 49° (NE) 568 - -54.0°
Drops below altitude 10° 23:29:18 10° 134° (SE) 1,815 - -54.4°
Sets 23:31:32 0° 136° (SE) 2,704 - -54.6°
